KB3KBR-WX Weather Reports


time (UTC)temp
C
wind
direction
speed
KPH
gust
KPH
rain 1hr
cm
rain 24hr
cm
rain mn
cm
humidity
%
barometer
mb
20260507231601 10 181 1.6 11.3 0.00 0.00 0.00 53 1008.1
20260507231102 10 22 1.6 8.0 0.00 0.00 0.00 54 1008.1
20260507230532 10 346 1.6 16.1 0.00 0.00 0.00 54 1008.0
20260507230032 10 337 3.2 16.1 0.00 0.00 0.00 54 1008.0
20260507225501 10 357 4.8 19.3 0.00 0.00 0.00 54 1007.8
20260507225001 10 354 3.2 14.5 0.00 0.00 0.00 56 1007.7
20260507224432 10 340 4.8 11.3 0.00 0.00 0.00 55 1007.7
20260507223902 11 344 6.4 14.5 0.00 0.00 0.00 55 1007.7
20260507223402 11 339 4.8 14.5 0.00 0.00 0.00 54 1007.6
20260507222831 11 339 3.2 9.7 0.00 0.00 0.00 55 1007.6
20260507222507 11 341 3.2 8.0 0.00 0.00 0.00 54 1007.4
20260507222333 11 341 3.2 8.0 0.00 0.00 0.00 54 1007.4
20260507221831 11 343 3.2 9.7 0.00 0.00 0.00 54 1007.4
20260507221302 11 356 3.2 11.3 0.00 0.00 0.00 53 1007.3
20260507220732 11 354 3.2 11.3 0.00 0.00 0.00 53 1007.3
20260507220232 11 354 3.2 12.9 0.00 0.00 0.00 55 1007.2
20260507215732 12 355 4.8 12.9 0.00 0.00 0.00 53 1007.1
20260507215232 12 343 4.8 11.3 0.00 0.00 0.00 54 1007.0
20260507214702 12 346 8.0 20.9 0.00 0.00 0.00 53 1006.9
20260507214132 12 347 8.0 20.9 0.00 0.00 0.00 53 1006.8
20260507213601 12 331 6.4 17.7 0.00 0.00 0.00 53 1006.9
20260507213101 12 329 4.8 11.3 0.00 0.00 0.00 52 1006.9
20260507212602 12 343 4.8 11.3 0.00 0.00 0.00 52 1006.8
20260507212031 12 349 3.2 11.3 0.00 0.00 0.00 53 1006.7
20260507211502 12 338 1.6 8.0 0.00 0.00 0.00 52 1006.7
20260507211001 12 351 3.2 11.3 0.00 0.00 0.00 51 1006.5
20260507210502 12 346 3.2 11.3 0.00 0.00 0.00 52 1006.6
20260507205932 12 346 4.8 11.3 0.00 0.00 0.00 51 1006.7
20260507205401 12 348 6.4 12.9 0.00 0.00 0.00 50 1006.6
20260507204832 12 344 6.4 17.7 0.00 0.00 0.00 50 1006.6
20260507204301 13 344 4.8 17.7 0.00 0.00 0.00 50 1006.6
20260507203801 13 343 3.2 9.7 0.00 0.00 0.00 48 1006.6
20260507203232 13 4 1.6 9.7 0.00 0.00 0.00 48 1006.6
20260507202702 13 229 1.6 11.3 0.00 0.00 0.00 49 1006.7
20260507202131 12 344 1.6 11.3 0.00 0.00 0.00 47 1006.8
20260507201632 12 352 3.2 12.9 0.00 0.00 0.00 48 1006.8
20260507201101 12 341 4.8 12.9 0.00 0.00 0.00 46 1006.8
20260507200601 13 137 3.2 12.9 0.00 0.00 0.00 44 1006.6
20260507200031 13 1 3.2 9.7 0.00 0.00 0.00 45 1006.7
20260507195532 13 259 3.2 9.7 0.00 0.00 0.00 45 1006.7
20260507195001 13 176 1.6 8.0 0.00 0.00 0.00 44 1006.8
20260507194501 13 138 1.6 12.9 0.00 0.00 0.00 46 1006.8
20260507193931 13 147 1.6 12.9 0.00 0.00 0.00 45 1006.8
20260507193401 13 173 1.6 9.7 0.00 0.00 0.00 46 1006.9
20260507192831 13 171 3.2 9.7 0.00 0.00 0.00 46 1006.9
20260507192305 13 169 4.8 9.7 0.00 0.00 0.00 46 1006.9
20260507191731 13 177 3.2 9.7 0.00 0.00 0.00 45 1006.9
20260507191232 13 351 4.8 16.1 0.00 0.00 0.00 45 1007.0
20260507190731 13 355 4.8 16.1 0.00 0.00 0.00 44 1007.0
20260507185631 13 337 3.2 12.9 0.00 0.00 0.00 51 1007.3
20260507185131 13 161 1.6 8.0 0.00 0.00 0.00 50 1007.3
20260507184602 12 66 3.2 9.7 0.00 0.00 0.00 49 1007.5
20260507184101 12 3 3.2 11.3 0.00 0.00 0.00 49 1007.5
20260507183531 12 350 3.2 11.3 0.00 0.00 0.00 50 1007.5
20260507183031 12 346 3.2 9.7 0.00 0.00 0.00 50 1007.5
20260507182503 12 352 3.2 17.7 0.00 0.00 0.00 48 1007.4
20260507182001 13 13 3.2 17.7 0.00 0.00 0.00 49 1007.4
20260507181431 13 331 3.2 9.7 0.00 0.00 0.00 47 1007.4
20260507180901 13 181 1.6 8.0 0.00 0.00 0.00 48 1007.4
20260507180331 13 360 3.2 12.9 0.00 0.00 0.00 48 1007.4
20260507175801 13 346 3.2 12.9 0.00 0.00 0.00 49 1007.4
20260507175231 13 316 1.6 9.7 0.00 0.00 0.00 51 1007.5
20260507174701 13 106 1.6 12.9 0.00 0.00 0.00 47 1007.6
20260507174201 13 296 3.2 11.3 0.00 0.00 0.00 47 1007.7
20260507173631 13 287 3.2 11.3 0.00 0.00 0.00 44 1007.7
20260507173131 13 200 4.8 14.5 0.00 0.00 0.00 47 1007.7
20260507172601 13 176 4.8 14.5 0.00 0.00 0.00 44 1007.8
20260507172031 13 198 3.2 11.3 0.00 0.00 0.00 47 1007.9
20260507171532 13 144 3.2 14.5 0.00 0.00 0.00 48 1007.9
20260507171001 13 360 4.8 14.5 0.00 0.00 0.00 46 1007.9
20260507170431 13 351 4.8 9.7 0.00 0.00 0.00 47 1007.9
20260507165901 13 292 4.8 11.3 0.00 0.00 0.00 46 1007.8
20260507165401 13 160 3.2 12.9 0.00 0.00 0.00 44 1008.0
20260507164832 13 40 4.8 16.1 0.00 0.00 0.00 48 1008.1
20260507164301 13 10 4.8 16.1 0.00 0.00 0.00 45 1008.1
20260507164014 13 15 3.2 11.3 0.00 0.00 0.00 45 1008.2
20260507163732 13 15 3.2 11.3 0.00 0.00 0.00 45 1008.2
20260507163233 13 197 3.2 9.7 0.00 0.00 0.00 44 1008.2
20260507162701 13 348 4.8 12.9 0.00 0.00 0.00 45 1008.2
20260507162132 13 20 3.2 12.9 0.00 0.00 0.00 46 1008.3
20260507161631 12 130 3.2 9.7 0.00 0.00 0.00 46 1008.2
20260507161101 12 146 1.6 9.7 0.00 0.00 0.00 46 1008.4
20260507160601 12 4 3.2 14.5 0.00 0.00 0.00 48 1008.5
20260507155601 12 10 3.2 9.7 0.00 0.00 0.00 47 1008.5
20260507155031 12 32 3.2 14.5 0.00 0.00 0.00 48 1008.7
20260507154501 12 162 3.2 14.5 0.00 0.00 0.00 47 1008.7
20260507154002 11 175 3.2 11.3 0.00 0.00 0.00 47 1008.8
20260507153431 11 168 3.2 11.3 0.00 0.00 0.00 49 1008.9
20260507152931 11 156 3.2 9.7 0.00 0.00 0.00 47 1008.9
20260507152401 11 60 3.2 9.7 0.00 0.00 0.00 49 1009.0
20260507151831 11 22 1.6 9.7 0.00 0.00 0.00 49 1009.0
20260507151301 11 165 3.2 12.9 0.00 0.00 0.00 50 1009.1
20260507150202 11 312 3.2 14.5 0.00 0.00 0.00 49 1009.1
20260507145701 11 286 3.2 14.5 0.00 0.00 0.00 55 1009.1
20260507145201 11 14 3.2 14.5 0.00 0.00 0.00 53 1009.2
20260507144631 11 11 3.2 14.5 0.00 0.00 0.00 54 1009.3
20260507144131 11 359 3.2 19.3 0.00 0.00 0.00 56 1009.4
20260507143602 11 14 3.2 9.7 0.00 0.00 0.00 55 1009.3
20260507143031 11 110 4.8 14.5 0.00 0.00 0.00 57 1009.4
20260507142501 11 151 4.8 14.5 0.00 0.00 0.00 57 1009.5
20260507141931 11 242 3.2 8.0 0.00 0.00 0.00 59 1009.5
20260507141401 11 330 3.2 16.1 0.00 0.00 0.00 62 1009.5
20260507140902 10 355 4.8 16.1 0.00 0.00 0.00 60 1009.6
20260507140331 10 4 3.2 11.3 0.00 0.00 0.00 64 1009.6
20260507135910 10 8 1.6 9.7 0.00 0.00 0.00 66 1009.7
20260507135831 10 8 1.6 9.7 0.00 0.00 0.00 66 1009.7
20260507135301 9 32 1.6 6.4 0.00 0.00 0.00 66 1009.7
20260507134801 9 187 3.2 9.7 0.00 0.00 0.00 68 1009.8
20260507134231 9 192 3.2 9.7 0.00 0.00 0.00 69 1009.8
20260507133731 8 28 1.6 9.7 0.00 0.00 0.00 69 1009.7
20260507133201 8 23 1.6 6.4 0.00 0.00 0.00 70 1009.8
20260507132701 9 50 1.6 6.4 0.00 0.00 0.00 71 1009.8
20260507132201 8 188 0.0 3.2 0.00 0.00 0.00 71 1009.8
20260507131631 8 3 0.0 6.4 0.00 0.00 0.00 72 1009.7
20260507131101 7 16 1.6 6.4 0.00 0.00 0.00 74 1009.7
20260507130531 7 72 0.0 4.8 0.00 0.00 0.00 77 1009.8
20260507130031 7 226 0.0 4.8 0.00 0.00 0.00 79 1009.8
20260507125501 6 352 0.0 1.6 0.00 0.00 0.00 81 1009.7
20260507125001 6 345 0.0 6.4 0.00 0.00 0.00 81 1009.7
20260507124501 6 313 0.0 6.4 0.00 0.00 0.00 80 1009.8
20260507123931 6 174 0.0 4.8 0.00 0.00 0.00 80 1009.8
20260507123431 6 331 0.0 4.8 0.00 0.00 0.00 82 1009.7
20260507122901 5 171 1.6 4.8 0.00 0.00 0.00 83 1009.7
20260507122331 5 161 3.2 8.0 0.00 0.00 0.00 85 1009.6
20260507121831 4 159 3.2 8.0 0.00 0.03 0.00 90 1009.6
20260507121301 3 166 1.6 4.8 0.00 0.03 0.00 93 1009.6
20260507120731 2 157 0.0 4.8 0.00 0.03 0.00 93 1009.7
20260507120231 2 24 0.0 1.6 0.00 0.05 0.00 93 1009.7
20260507115201 1 0 0.0 0.0 0.00 0.08 0.00 92 1009.9
20260507114701 1 0 0.0 0.0 0.00 0.08 0.00 92 1010.0
20260507114201 1 20 0.0 1.6 0.00 0.08 0.00 92 1010.0
20260507113631 1 26 0.0 1.6 0.00 0.08 0.00 92 1010.0
20260507113141 1 35 0.0 1.6 0.00 0.08 0.00 92 1010.1
20260507113131 1 35 0.0 1.6 0.00 0.08 0.00 92 1010.1
20260507112631 1 0 0.0 0.0 0.00 0.10 0.00 92 1009.9
20260507112101 0 0 0.0 0.0 0.00 0.10 0.00 92 1009.9
20260507111601 0 0 0.0 0.0 0.00 0.10 0.00 92 1009.9
20260507111101 0 0 0.0 0.0 0.00 0.13 0.00 92 1009.8
20260507110531 0 0 0.0 0.0 0.00 0.13 0.00 91 1010.0
20260507110001 0 0 0.0 0.0 0.00 0.15 0.00 91 1009.9
20260507105501 0 53 0.0 1.6 0.00 0.18 0.00 91 1009.8
20260507104931 0 53 0.0 1.6 0.00 0.23 0.00 91 1009.8
20260507104401 0 53 0.0 1.6 0.00 0.25 0.00 91 1009.7
20260507103831 0 0 0.0 0.0 0.00 0.28 0.00 91 1009.6
20260507103301 0 0 0.0 0.0 0.00 0.30 0.00 91 1009.5
20260507102731 0 0 0.0 0.0 0.00 0.36 0.00 91 1009.4
20260507102231 0 0 0.0 0.0 0.00 0.36 0.00 91 1009.4
20260507101731 0 0 0.0 0.0 0.00 0.41 0.00 91 1009.4
20260507101201 0 0 0.0 0.0 0.00 0.43 0.00 91 1009.5
20260507100631 0 0 0.0 0.0 0.00 0.43 0.00 91 1009.4
20260507100132 0 0 0.0 0.0 0.00 0.46 0.00 90 1009.5
20260507095601 0 0 0.0 0.0 0.00 0.48 0.00 90 1009.4
20260507095102 0 0 0.0 0.0 0.00 0.48 0.00 90 1009.4
20260507094531 0 0 0.0 0.0 0.00 0.51 0.00 90 1009.3
20260507094031 0 0 0.0 0.0 0.00 0.51 0.00 90 1009.4
20260507093531 0 0 0.0 0.0 0.00 0.53 0.00 90 1009.3
20260507093031 0 0 0.0 0.0 0.00 0.56 0.00 90 1009.3
20260507091931 0 0 0.0 0.0 0.00 0.61 0.00 89 1009.5
20260507091431 0 0 0.0 0.0 0.00 0.66 0.00 89 1009.5
20260507090901 0 0 0.0 0.0 0.00 0.69 0.00 89 1009.5
20260507090331 0 0 0.0 0.0 0.00 0.74 0.00 89 1009.6
20260507085801 1 0 0.0 0.0 0.00 0.79 0.00 89 1009.4
20260507085301 1 0 0.0 0.0 0.00 0.81 0.00 89 1009.5
20260507084802 1 0 0.0 0.0 0.00 0.86 0.00 89 1009.6
20260507084231 1 0 0.0 0.0 0.00 0.91 0.00 89 1009.6
20260507083731 1 0 0.0 0.0 0.00 0.97 0.00 89 1009.6
20260507083231 1 0 0.0 0.0 0.00 0.99 0.00 89 1009.7
20260507082701 1 0 0.0 0.0 0.00 1.02 0.00 89 1009.7
20260507082201 1 0 0.0 0.0 0.00 1.04 0.00 88 1009.6
20260507081631 1 0 0.0 0.0 0.00 1.07 0.00 88 1009.6
20260507081131 1 0 0.0 0.0 0.00 1.07 0.00 88 1009.7
20260507080601 1 0 0.0 0.0 0.00 1.09 0.00 88 1009.6
20260507075601 1 0 0.0 0.0 0.00 1.12 0.00 88 1009.8
20260507075101 1 0 0.0 0.0 0.00 1.12 0.00 87 1009.7
20260507074531 1 0 0.0 0.0 0.00 1.14 0.00 87 1009.7
20260507074001 1 0 0.0 0.0 0.00 1.17 0.00 87 1009.6
20260507073431 1 0 0.0 0.0 0.00 1.17 0.00 87 1009.5
20260507072901 2 0 0.0 0.0 0.00 1.19 0.00 86 1009.6
20260507072401 2 0 0.0 0.0 0.00 1.19 0.00 86 1009.7
20260507071831 2 0 0.0 0.0 0.00 1.19 0.00 86 1009.8
20260507071331 2 0 0.0 0.0 0.00 1.19 0.00 85 1009.9
20260507070831 2 0 0.0 0.0 0.00 1.22 0.00 85 1009.9
20260507070301 2 0 0.0 0.0 0.00 1.24 0.00 85 1009.8
20260507065801 2 0 0.0 0.0 0.00 1.24 0.00 85 1009.9
20260507065234 2 0 0.0 0.0 0.00 1.27 0.00 84 1010.0
20260507064731 2 0 0.0 0.0 0.00 1.27 0.00 84 1010.0
20260507064201 2 0 0.0 0.0 0.00 1.27 0.00 83 1010.1
20260507063701 3 0 0.0 0.0 0.00 1.30 0.00 83 1010.0
20260507063201 3 34 0.0 1.6 0.00 1.30 0.00 83 1010.2
20260507062631 3 34 0.0 1.6 0.00 1.32 0.00 82 1010.1
20260507062101 3 0 0.0 0.0 0.00 1.35 0.00 82 1009.9
20260507061603 3 0 0.0 0.0 0.00 1.35 0.00 82 1010.1
20260507061032 3 0 0.0 0.0 0.00 1.37 0.00 80 1010.2
20260507060501 3 0 0.0 0.0 0.00 1.37 0.00 80 1010.0
20260507055931 4 0 0.0 0.0 0.00 1.37 0.00 79 1010.0
20260507055431 4 0 0.0 0.0 0.00 1.37 0.00 78 1010.2
20260507054938 4 0 0.0 0.0 0.00 1.37 0.00 78 1010.2
20260507054901 4 0 0.0 0.0 0.00 1.37 0.00 78 1010.2
20260507054331 5 0 0.0 0.0 0.00 1.37 0.00 77 1010.2
20260507053832 5 0 0.0 0.0 0.00 1.40 0.00 78 1010.2
20260507053302 5 0 0.0 0.0 0.00 1.40 0.00 77 1010.2
20260507052731 5 0 0.0 0.0 0.00 1.42 0.00 77 1010.3
20260507052201 5 0 0.0 0.0 0.00 1.42 0.00 76 1010.3
20260507051701 5 0 0.0 0.0 0.00 1.45 0.00 76 1010.4
20260507051131 5 0 0.0 0.0 0.00 1.45 0.00 75 1010.5
20260507050632 5 0 0.0 0.0 0.00 1.45 0.00 74 1010.4
20260507050131 6 0 0.0 0.0 0.00 1.45 0.00 73 1010.5
20260507045601 6 33 0.0 1.6 0.00 1.45 0.00 71 1010.6
20260507045102 6 33 0.0 1.6 0.00 1.47 0.00 70 1010.6
20260507044601 6 0 0.0 0.0 0.00 1.47 0.00 70 1010.6
20260507044103 6 0 0.0 0.0 0.00 1.47 0.00 71 1010.7
20260507043031 6 23 0.0 1.6 0.00 1.50 0.00 70 1010.7
20260507042504 6 23 0.0 1.6 0.00 1.50 0.00 70 1010.8
20260507041932 6 8 0.0 1.6 0.00 1.50 0.00 69 1010.8
20260507041434 6 2 0.0 1.6 0.00 1.50 0.00 69 1010.8
20260507040901 6 353 0.0 1.6 0.00 1.52 0.00 70 1010.9
20260507040439 6 308 0.0 1.6 0.00 1.52 0.00 70 1010.7
20260507040402 6 308 0.0 1.6 0.00 1.52 0.00 70 1010.7
20260507035901 6 0 0.0 0.0 0.00 1.52 1.52 70 1010.7
20260507035409 6 0 0.0 0.0 0.00 1.52 1.52 71 1010.6
20260507035331 6 0 0.0 0.0 0.00 1.52 1.52 71 1010.6
20260507034831 6 0 0.0 0.0 0.00 1.52 1.52 72 1010.6
20260507034301 6 34 0.0 1.6 0.00 1.52 1.52 73 1010.7
20260507033801 6 34 0.0 1.6 0.00 1.52 1.52 72 1010.6
20260507033231 6 0 0.0 0.0 0.00 1.52 1.52 72 1010.6
20260507032702 6 20 0.0 1.6 0.00 1.52 1.52 70 1010.6
20260507032131 6 7 0.0 3.2 0.00 1.52 1.52 70 1010.6
20260507031631 6 351 0.0 3.2 0.00 1.52 1.52 70 1010.7
20260507031101 6 360 0.0 4.8 0.00 1.55 1.52 70 1010.7
20260507030531 6 357 0.0 4.8 0.00 1.57 1.52 70 1010.8
20260507025503 6 0 0.0 0.0 0.00 1.57 1.52 72 1010.7
20260507025001 6 27 0.0 1.6 0.00 1.57 1.52 71 1010.7
20260507024511 6 27 0.0 1.6 0.00 1.57 1.52 71 1010.7
20260507024431 6 27 0.0 1.6 0.00 1.57 1.52 71 1010.7
20260507024007 6 0 0.0 0.0 0.00 1.60 1.52 70 1010.5
20260507023931 6 0 0.0 0.0 0.00 1.60 1.52 70 1010.5
20260507023431 6 0 0.0 0.0 0.00 1.60 1.52 71 1010.3
20260507022900 6 327 0.0 1.6 0.00 1.63 1.52 70 1010.4
20260507022331 6 333 0.0 3.2 0.00 1.65 1.52 71 1010.2
20260507021830 6 332 1.6 4.8 0.00 1.75 1.52 72 1010.2
20260507021508 6 334 0.0 4.8 0.00 1.80 1.52 71 1010.2
20260507021301 6 334 0.0 4.8 0.00 1.80 1.52 71 1010.2
20260507020730 6 351 0.0 4.8 0.00 1.85 1.52 71 1010.1
20260507020506 7 344 0.0 4.8 0.00 1.88 1.52 71 1010.2
20260507020231 7 344 0.0 4.8 0.00 1.88 1.52 71 1010.2
20260507015802 7 348 0.0 3.2 0.00 1.91 1.52 70 1010.3
20260507015701 7 348 0.0 3.2 0.00 1.91 1.52 70 1010.3
20260507015201 7 359 0.0 1.6 0.00 1.98 1.52 71 1010.3
20260507014632 7 36 0.0 1.6 0.00 2.11 1.52 70 1010.3
20260507014101 7 348 0.0 1.6 0.00 2.16 1.52 69 1010.3
20260507013600 7 335 0.0 3.2 0.00 2.16 1.52 69 1010.3
20260507013100 7 337 1.6 8.0 0.00 2.16 1.52 70 1010.3
20260507012601 7 336 1.6 8.0 0.00 2.16 1.52 69 1010.2
20260507012030 7 350 3.2 8.0 0.00 2.16 1.52 68 1010.3
20260507011531 7 353 3.2 8.0 0.00 2.16 1.52 67 1010.1
20260507011001 7 346 1.6 6.4 0.00 2.16 1.52 69 1010.3
20260507010431 7 340 0.0 1.6 0.00 2.16 1.52 71 1010.3
20260507005930 7 347 0.0 4.8 0.00 2.16 1.52 68 1010.2
20260507005504 7 354 0.0 4.8 0.00 2.16 1.52 69 1010.0
20260507005431 7 354 0.0 4.8 0.00 2.16 1.52 69 1010.0
20260507004931 7 360 0.0 3.2 0.00 2.16 1.52 70 1010.1
20260507004401 7 341 0.0 1.6 0.00 2.16 1.52 66 1010.1
20260507003831 7 341 0.0 1.6 0.00 2.16 1.52 66 1010.2
20260507003331 7 341 0.0 1.6 0.00 2.16 1.52 65 1010.1
20260507002831 7 341 0.0 1.6 0.00 2.16 1.52 63 1010.3
20260507001732 7 337 0.0 3.2 0.00 2.16 1.52 63 1010.1
20260507001201 8 336 1.6 4.8 0.00 2.16 1.52 64 1010.1
20260507000700 8 344 1.6 6.4 0.00 2.18 1.52 60 1009.9
20260507000201 8 353 1.6 6.4 0.00 2.18 1.52 61 1010.1
20260506235631 8 349 1.6 6.4 0.00 2.18 1.52 60 1010.3
20260506235101 8 338 1.6 4.8 0.00 2.18 1.52 61 1010.4
20260506234530 8 337 1.6 9.7 0.00 2.18 1.52 60 1010.1
20260506234031 8 338 3.2 9.7 0.00 2.18 1.52 60 1010.1
20260506233531 8 339 3.2 11.3 0.00 2.18 1.52 61 1009.7
20260506233031 8 340 4.8 11.3 0.00 2.18 1.52 60 1009.6
20260506232531 8 337 4.8 11.3 0.00 2.18 1.52 60 1009.6
20260506232001 8 344 4.8 12.9 0.00 2.18 1.52 59 1009.6